sat.trackr.live / text

‹ back to catalog

STARLINK-34705

NORAD 64932 · 2025-158A

PAYLOAD ACTIVE UNKNOWN

§ Identity

Operator
Country
US
Launch date
2025-07-27
Launch site
AFWTR
Launch vehicle
Mass (kg)
RCS (m²)

Purposes: comms

External: N2YO · Heavens-Above · Gunter

§ Orbital elements

Epoch: 2026-05-25T02:57:10.630944Z

Period
95.64 min
Inclination
97.4502°
Eccentricity
0.0003594
Mean motion
15.05668728 rev/d
Perigee alt
547.0 km
Apogee alt
551.9 km
Semi-major
6,927.6 km
B*
2.5027e-4
RAAN
8.9913°
Arg perigee
178.3139°
Mean anomaly
181.8101°
Rev number
4,685

§ Raw data

STARLINK-347051 64932U 25158A   26145.12303971  .00003556  00000+0  25027-3 0  99962 64932  97.4502   8.9913 0003594 178.3139 181.8101 15.05668728 46857

JSON: /api/v1/satellites/64932 · /tle

For live sub-satellite position, see the globe view (requires WebGL).

§ Visibility from observer

Set your observer location to see the next 7 days of passes ≥ 10°. The values pass through the URL so the page stays shareable.

No JS? Fill the form by hand. The geolocation button needs JavaScript.